Data supplied by UK-AIR on 1/4/2011
All Data GMT hour ending 
Status: R =Ratified P=Provisional,P*=As supplied
,,Lough Navar,,,,,,,,,,,,,,,,,,,,,,,
Date,time,"PM<sub>10</sub> particulate matter (Hourly measured)",status,unit,"Non-volatile PM<sub>10</sub> (Hourly measured)",status,unit,"Ozone",status,unit,"Volatile PM<sub>10</sub> (Hourly measured)",status,unit
 
01-01-2010,01:00,5,R,ugm-3 (TEOM FDMS),3,R,ugm-3 (TEOM FDMS),28,R,ugm-3,2,R,ugm-3 (TEOM FDMS)
01-01-2010,02:00,5,R,ugm-3 (TEOM FDMS),3,R,ugm-3 (TEOM FDMS),20,R,ugm-3,2,R,ugm-3 (TEOM FDMS)
01-01-2010,03:00,4,R,ugm-3 (TEOM FDMS),1,R,ugm-3 (TEOM FDMS),16,R,ugm-3,3,R,ugm-3 (TEOM FDMS)
01-01-2010,04:00,3,R,ugm-3 (TEOM FDMS),2,R,ugm-3 (TEOM FDMS),16,R,ugm-3,1,R,ugm-3 (TEOM FDMS)
01-01-2010,05:00,4,R,ugm-3 (TEOM FDMS),2,R,ugm-3 (TEOM FDMS),14,R,ugm-3,2,R,ugm-3 (TEOM FDMS)
01-01-2010,06:00,4,R,ugm-3 (TEOM FDMS),1,R,ugm-3 (TEOM FDMS),12,R,ugm-3,3,R,ugm-3 (TEOM FDMS)
01-01-2010,07:00,3,R,ugm-3 (TEOM FDMS),2,R,ugm-3 (TEOM FDMS),10,R,ugm-3,1,R,ugm-3 (TEOM FDMS)
01-01-2010,08:00,3,R,ugm-3 (TEOM FDMS),1,R,ugm-3 (TEOM FDMS),12,R,ugm-3,2,R,ugm-3 (TEOM FDMS)
01-01-2010,09:00,2,R,ugm-3 (TEOM FDMS),0,R,ugm-3 (TEOM FDMS),10,R,ugm-3,2,R,ugm-3 (TEOM FDMS)
01-01-2010,10:00,7,R,ugm-3 (TEOM FDMS),6,R,ugm-3 (TEOM FDMS),20,R,ugm-3,1,R,ugm-3 (TEOM FDMS)
01-01-2010,11:00,18,R,ugm-3 (TEOM FDMS),19,R,ugm-3 (TEOM FDMS),30,R,ugm-3,-1,R,ugm-3 (TEOM FDMS)
01-01-2010,12:00,6,R,ugm-3 (TEOM FDMS),9,R,ugm-3 (TEOM FDMS),34,R,ugm-3,-3,R,ugm-3 (TEOM FDMS)
01-01-2010,13:00,2,R,ugm-3 (TEOM FDMS),4,R,ugm-3 (TEOM FDMS),50,R,ugm-3,-2,R,ugm-3 (TEOM FDMS)
01-01-2010,14:00,5,R,ugm-3 (TEOM FDMS),3,R,ugm-3 (TEOM FDMS),64,R,ugm-3,2,R,ugm-3 (TEOM FDMS)
01-01-2010,15:00,7,R,ugm-3 (TEOM FDMS),5,R,ugm-3 (TEOM FDMS),62,R,ugm-3,2,R,ugm-3 (TEOM FDMS)
01-01-2010,16:00,6,R,ugm-3 (TEOM FDMS),5,R,ugm-3 (TEOM FDMS),54,R,ugm-3,1,R,ugm-3 (TEOM FDMS)
01-01-2010,17:00,6,R,ugm-3 (TEOM FDMS),4,R,ugm-3 (TEOM FDMS),32,R,ugm-3,2,R,ugm-3 (TEOM FDMS)
01-01-2010,18:00,8,R,ugm-3 (TEOM FDMS),6,R,ugm-3 (TEOM FDMS),30,R,ugm-3,2,R,ugm-3 (TEOM FDMS)
01-01-2010,19:00,7,R,ugm-3 (TEOM FDMS),5,R,ugm-3 (TEOM FDMS),34,R,ugm-3,2,R,ugm-3 (TEOM FDMS)
01-01-2010,20:00,11,R,ugm-3 (TEOM FDMS),9,R,ugm-3 (TEOM FDMS),38,R,ugm-3,2,R,ugm-3 (TEOM FDMS)
01-01-2010,21:00,8,R,ugm-3 (TEOM FDMS),8,R,ugm-3 (TEOM FDMS),44,R,ugm-3,0,R,ugm-3 (TEOM FDMS)
01-01-2010,22:00,8,R,ugm-3 (TEOM FDMS),6,R,ugm-3 (TEOM FDMS),38,R,ugm-3,2,R,ugm-3 (TEOM FDMS)
01-01-2010,23:00,5,R,ugm-3 (TEOM FDMS),2,R,ugm-3 (TEOM FDMS),28,R,ugm-3,3,R,ugm-3 (TEOM FDMS)
01-01-2010,24:00,3,R,ugm-3 (TEOM FDMS),1,R,ugm-3 (TEOM FDMS),24,R,ugm-3,2,R,ugm-3 (TEOM FDMS)
02-01-2010,01:00,5,R,ugm-3 (TEOM FDMS),2,R,ugm-3 (TEOM FDMS),18,R,ugm-3,3,R,ugm-3 (TEOM FDMS)
02-01-2010,02:00,3,R,ugm-3 (TEOM FDMS),1,R,ugm-3 (TEOM FDMS),24,R,ugm-3,2,R,ugm-3 (TEOM FDMS)
02-01-2010,03:00,4,R,ugm-3 (TEOM FDMS),2,R,ugm-3 (TEOM FDMS),22,R,ugm-3,2,R,ugm-3 (TEOM FDMS)
02-01-2010,04:00,4,R,ugm-3 (TEOM FDMS),3,R,ugm-3 (TEOM FDMS),24,R,ugm-3,1,R,ugm-3 (TEOM FDMS)
02-01-2010,05:00,3,R,ugm-3 (TEOM FDMS),3,R,ugm-3 (TEOM FDMS),20,R,ugm-3,0,R,ugm-3 (TEOM FDMS)
02-01-2010,06:00,2,R,ugm-3 (TEOM FDMS),1,R,ugm-3 (TEOM FDMS),22,R,ugm-3,1,R,ugm-3 (TEOM FDMS)
02-01-2010,07:00,4,R,ugm-3 (TEOM FDMS),3,R,ugm-3 (TEOM FDMS),32,R,ugm-3,1,R,ugm-3 (TEOM FDMS)
02-01-2010,08:00,3,R,ugm-3 (TEOM FDMS),2,R,ugm-3 (TEOM FDMS),34,R,ugm-3,1,R,ugm-3 (TEOM FDMS)
02-01-2010,09:00,3,R,ugm-3 (TEOM FDMS),5,R,ugm-3 (TEOM FDMS),62,R,ugm-3,-2,R,ugm-3 (TEOM FDMS)
02-01-2010,10:00,4,R,ugm-3 (TEOM FDMS),5,R,ugm-3 (TEOM FDMS),62,R,ugm-3,-1,R,ugm-3 (TEOM FDMS)
02-01-2010,11:00,6,R,ugm-3 (TEOM FDMS),7,R,ugm-3 (TEOM FDMS),58,R,ugm-3,-1,R,ugm-3 (TEOM FDMS)
02-01-2010,12:00,6,R,ugm-3 (TEOM FDMS),7,R,ugm-3 (TEOM FDMS),58,R,ugm-3,-1,R,ugm-3 (TEOM FDMS)
02-01-2010,13:00,5,R,ugm-3 (TEOM FDMS),6,R,ugm-3 (TEOM FDMS),60,R,ugm-3,-1,R,ugm-3 (TEOM FDMS)
02-01-2010,14:00,4,R,ugm-3 (TEOM FDMS),3,R,ugm-3 (TEOM FDMS),50,R,ugm-3,1,R,ugm-3 (TEOM FDMS)
02-01-2010,15:00,6,R,ugm-3 (TEOM FDMS),5,R,ugm-3 (TEOM FDMS),60,R,ugm-3,1,R,ugm-3 (TEOM FDMS)
02-01-2010,16:00,4,R,ugm-3 (TEOM FDMS),4,R,ugm-3 (TEOM FDMS),56,R,ugm-3,0,R,ugm-3 (TEOM FDMS)
02-01-2010,17:00,6,R,ugm-3 (TEOM FDMS),5,R,ugm-3 (TEOM FDMS),52,R,ugm-3,1,R,ugm-3 (TEOM FDMS)
02-01-2010,18:00,8,R,ugm-3 (TEOM FDMS),7,R,ugm-3 (TEOM FDMS),48,R,ugm-3,1,R,ugm-3 (TEOM FDMS)
02-01-2010,19:00,8,R,ugm-3 (TEOM FDMS),7,R,ugm-3 (TEOM FDMS),42,R,ugm-3,1,R,ugm-3 (TEOM FDMS)
02-01-2010,20:00,9,R,ugm-3 (TEOM FDMS),7,R,ugm-3 (TEOM FDMS),38,R,ugm-3,2,R,ugm-3 (TEOM FDMS)
02-01-2010,21:00,8,R,ugm-3 (TEOM FDMS),5,R,ugm-3 (TEOM FDMS),32,R,ugm-3,3,R,ugm-3 (TEOM FDMS)
02-01-2010,22:00,8,R,ugm-3 (TEOM FDMS),7,R,ugm-3 (TEOM FDMS),32,R,ugm-3,1,R,ugm-3 (TEOM FDMS)
02-01-2010,23:00,17,R,ugm-3 (TEOM FDMS),15,R,ugm-3 (TEOM FDMS),16,R,ugm-3,2,R,ugm-3 (TEOM FDMS)
02-01-2010,24:00,8,R,ugm-3 (TEOM FDMS),6,R,ugm-3 (TEOM FDMS),22,R,ugm-3,2,R,ugm-3 (TEOM FDMS)
03-01-2010,01:00,7,R,ugm-3 (TEOM FDMS),5,R,ugm-3 (TEOM FDMS),24,R,ugm-3,2,R,ugm-3 (TEOM FDMS)
03-01-2010,02:00,7,R,ugm-3 (TEOM FDMS),4,R,ugm-3 (TEOM FDMS),34,R,ugm-3,3,R,ugm-3 (TEOM FDMS)
03-01-2010,03:00,6,R,ugm-3 (TEOM FDMS),4,R,ugm-3 (TEOM FDMS),36,R,ugm-3,2,R,ugm-3 (TEOM FDMS)
03-01-2010,04:00,7,R,ugm-3 (TEOM FDMS),5,R,ugm-3 (TEOM FDMS),34,R,ugm-3,2,R,ugm-3 (TEOM FDMS)
03-01-2010,05:00,6,R,ugm-3 (TEOM FDMS),4,R,ugm-3 (TEOM FDMS),38,R,ugm-3,2,R,ugm-3 (TEOM FDMS)
03-01-2010,06:00,6,R,ugm-3 (TEOM FDMS),4,R,ugm-3 (TEOM FDMS),38,R,ugm-3,2,R,ugm-3 (TEOM FDMS)
03-01-2010,07:00,5,R,ugm-3 (TEOM FDMS),4,R,ugm-3 (TEOM FDMS),34,R,ugm-3,1,R,ugm-3 (TEOM FDMS)
03-01-2010,08:00,6,R,ugm-3 (TEOM FDMS),5,R,ugm-3 (TEOM FDMS),28,R,ugm-3,1,R,ugm-3 (TEOM FDMS)
03-01-2010,09:00,6,R,ugm-3 (TEOM FDMS),3,R,ugm-3 (TEOM FDMS),22,R,ugm-3,3,R,ugm-3 (TEOM FDMS)
03-01-2010,10:00,14,R,ugm-3 (TEOM FDMS),11,R,ugm-3 (TEOM FDMS),14,R,ugm-3,3,R,ugm-3 (TEOM FDMS)
03-01-2010,11:00,8,R,ugm-3 (TEOM FDMS),8,R,ugm-3 (TEOM FDMS),16,R,ugm-3,0,R,ugm-3 (TEOM FDMS)
03-01-2010,12:00,7,R,ugm-3 (TEOM FDMS),11,R,ugm-3 (TEOM FDMS),22,R,ugm-3,-4,R,ugm-3 (TEOM FDMS)
03-01-2010,13:00,4,R,ugm-3 (TEOM FDMS),7,R,ugm-3 (TEOM FDMS),34,R,ugm-3,-3,R,ugm-3 (TEOM FDMS)
03-01-2010,14:00,5,R,ugm-3 (TEOM FDMS),0,R,ugm-3 (TEOM FDMS),40,R,ugm-3,5,R,ugm-3 (TEOM FDMS)
03-01-2010,15:00,6,R,ugm-3 (TEOM FDMS),3,R,ugm-3 (TEOM FDMS),40,R,ugm-3,3,R,ugm-3 (TEOM FDMS)
03-01-2010,16:00,6,R,ugm-3 (TEOM FDMS),4,R,ugm-3 (TEOM FDMS),40,R,ugm-3,2,R,ugm-3 (TEOM FDMS)
03-01-2010,17:00,7,R,ugm-3 (TEOM FDMS),6,R,ugm-3 (TEOM FDMS),34,R,ugm-3,1,R,ugm-3 (TEOM FDMS)
03-01-2010,18:00,10,R,ugm-3 (TEOM FDMS),8,R,ugm-3 (TEOM FDMS),20,R,ugm-3,2,R,ugm-3 (TEOM FDMS)
03-01-2010,19:00,13,R,ugm-3 (TEOM FDMS),10,R,ugm-3 (TEOM FDMS),12,R,ugm-3,3,R,ugm-3 (TEOM FDMS)
03-01-2010,20:00,9,R,ugm-3 (TEOM FDMS),7,R,ugm-3 (TEOM FDMS),10,R,ugm-3,2,R,ugm-3 (TEOM FDMS)
03-01-2010,21:00,6,R,ugm-3 (TEOM FDMS),3,R,ugm-3 (TEOM FDMS),8,R,ugm-3,3,R,ugm-3 (TEOM FDMS)
03-01-2010,22:00,9,R,ugm-3 (TEOM FDMS),6,R,ugm-3 (TEOM FDMS),8,R,ugm-3,3,R,ugm-3 (TEOM FDMS)
03-01-2010,23:00,5,R,ugm-3 (TEOM FDMS),2,R,ugm-3 (TEOM FDMS),6,R,ugm-3,3,R,ugm-3 (TEOM FDMS)
03-01-2010,24:00,5,R,ugm-3 (TEOM FDMS),2,R,ugm-3 (TEOM FDMS),8,R,ugm-3,3,R,ugm-3 (TEOM FDMS)
04-01-2010,01:00,3,R,ugm-3 (TEOM FDMS),1,R,ugm-3 (TEOM FDMS),8,R,ugm-3,2,R,ugm-3 (TEOM FDMS)
04-01-2010,02:00,3,R,ugm-3 (TEOM FDMS),4,R,ugm-3 (TEOM FDMS),14,R,ugm-3,-1,R,ugm-3 (TEOM FDMS)
04-01-2010,03:00,4,R,ugm-3 (TEOM FDMS),5,R,ugm-3 (TEOM FDMS),14,R,ugm-3,-1,R,ugm-3 (TEOM FDMS)
04-01-2010,04:00,4,R,ugm-3 (TEOM FDMS),4,R,ugm-3 (TEOM FDMS),20,R,ugm-3,0,R,ugm-3 (TEOM FDMS)
04-01-2010,05:00,4,R,ugm-3 (TEOM FDMS),3,R,ugm-3 (TEOM FDMS),28,R,ugm-3,1,R,ugm-3 (TEOM FDMS)
04-01-2010,06:00,6,R,ugm-3 (TEOM FDMS),4,R,ugm-3 (TEOM FDMS),32,R,ugm-3,2,R,ugm-3 (TEOM FDMS)
04-01-2010,07:00,5,R,ugm-3 (TEOM FDMS),3,R,ugm-3 (TEOM FDMS),30,R,ugm-3,2,R,ugm-3 (TEOM FDMS)
04-01-2010,08:00,5,R,ugm-3 (TEOM FDMS),2,R,ugm-3 (TEOM FDMS),26,R,ugm-3,3,R,ugm-3 (TEOM FDMS)
04-01-2010,09:00,5,R,ugm-3 (TEOM FDMS),2,R,ugm-3 (TEOM FDMS),24,R,ugm-3,3,R,ugm-3 (TEOM FDMS)
04-01-2010,10:00,9,R,ugm-3 (TEOM FDMS),9,R,ugm-3 (TEOM FDMS),32,R,ugm-3,0,R,ugm-3 (TEOM FDMS)
04-01-2010,11:00,19,R,ugm-3 (TEOM FDMS),16,R,ugm-3 (TEOM FDMS),32,R,ugm-3,3,R,ugm-3 (TEOM FDMS)
04-01-2010,12:00,5,R,ugm-3 (TEOM FDMS),4,R,ugm-3 (TEOM FDMS),40,R,ugm-3,1,R,ugm-3 (TEOM FDMS)
04-01-2010,13:00,5,R,ugm-3 (TEOM FDMS),4,R,ugm-3 (TEOM FDMS),40,R,ugm-3,1,R,ugm-3 (TEOM FDMS)
04-01-2010,14:00,4,R,ugm-3 (TEOM FDMS),2,R,ugm-3 (TEOM FDMS),40,R,ugm-3,2,R,ugm-3 (TEOM FDMS)
04-01-2010,15:00,5,R,ugm-3 (TEOM FDMS),2,R,ugm-3 (TEOM FDMS),42,R,ugm-3,3,R,ugm-3 (TEOM FDMS)
04-01-2010,16:00,5,R,ugm-3 (TEOM FDMS),3,R,ugm-3 (TEOM FDMS),40,R,ugm-3,2,R,ugm-3 (TEOM FDMS)
04-01-2010,17:00,4,R,ugm-3 (TEOM FDMS),1,R,ugm-3 (TEOM FDMS),40,R,ugm-3,3,R,ugm-3 (TEOM FDMS)
04-01-2010,18:00,9,R,ugm-3 (TEOM FDMS),7,R,ugm-3 (TEOM FDMS),32,R,ugm-3,2,R,ugm-3 (TEOM FDMS)
04-01-2010,19:00,14,R,ugm-3 (TEOM FDMS),10,R,ugm-3 (TEOM FDMS),28,R,ugm-3,4,R,ugm-3 (TEOM FDMS)
04-01-2010,20:00,9,R,ugm-3 (TEOM FDMS),4,R,ugm-3 (TEOM FDMS),28,R,ugm-3,5,R,ugm-3 (TEOM FDMS)
04-01-2010,21:00,8,R,ugm-3 (TEOM FDMS),4,R,ugm-3 (TEOM FDMS),34,R,ugm-3,4,R,ugm-3 (TEOM FDMS)
04-01-2010,22:00,10,R,ugm-3 (TEOM FDMS),9,R,ugm-3 (TEOM FDMS),44,R,ugm-3,1,R,ugm-3 (TEOM FDMS)
04-01-2010,23:00,10,R,ugm-3 (TEOM FDMS),7,R,ugm-3 (TEOM FDMS),42,R,ugm-3,3,R,ugm-3 (TEOM FDMS)
04-01-2010,24:00,1,R,ugm-3 (TEOM FDMS),1,R,ugm-3 (TEOM FDMS),60,R,ugm-3,0,R,ugm-3 (TEOM FDMS)
05-01-2010,01:00,2,R,ugm-3 (TEOM FDMS),1,R,ugm-3 (TEOM FDMS),74,R,ugm-3,1,R,ugm-3 (TEOM FDMS)
05-01-2010,02:00,3,R,ugm-3 (TEOM FDMS),0,R,ugm-3 (TEOM FDMS),48,R,ugm-3,3,R,ugm-3 (TEOM FDMS)
05-01-2010,03:00,5,R,ugm-3 (TEOM FDMS),3,R,ugm-3 (TEOM FDMS),60,R,ugm-3,2,R,ugm-3 (TEOM FDMS)
05-01-2010,04:00,3,R,ugm-3 (TEOM FDMS),2,R,ugm-3 (TEOM FDMS),78,R,ugm-3,1,R,ugm-3 (TEOM FDMS)
05-01-2010,05:00,0,R,ugm-3 (TEOM FDMS),-3,R,ugm-3 (TEOM FDMS),74,R,ugm-3,3,R,ugm-3 (TEOM FDMS)
05-01-2010,06:00,1,R,ugm-3 (TEOM FDMS),-2,R,ugm-3 (TEOM FDMS),60,R,ugm-3,3,R,ugm-3 (TEOM FDMS)
05-01-2010,07:00,2,R,ugm-3 (TEOM FDMS),1,R,ugm-3 (TEOM FDMS),62,R,ugm-3,1,R,ugm-3 (TEOM FDMS)
05-01-2010,08:00,2,R,ugm-3 (TEOM FDMS),-1,R,ugm-3 (TEOM FDMS),70,R,ugm-3,3,R,ugm-3 (TEOM FDMS)
05-01-2010,09:00,4,R,ugm-3 (TEOM FDMS),1,R,ugm-3 (TEOM FDMS),62,R,ugm-3,3,R,ugm-3 (TEOM FDMS)
05-01-2010,10:00,4,R,ugm-3 (TEOM FDMS),3,R,ugm-3 (TEOM FDMS),60,R,ugm-3,1,R,ugm-3 (TEOM FDMS)
05-01-2010,11:00,7,R,ugm-3 (TEOM FDMS),7,R,ugm-3 (TEOM FDMS),60,R,ugm-3,0,R,ugm-3 (TEOM FDMS)
05-01-2010,12:00,2,R,ugm-3 (TEOM FDMS),4,R,ugm-3 (TEOM FDMS),68,R,ugm-3,-2,R,ugm-3 (TEOM FDMS)
05-01-2010,13:00,4,R,ugm-3 (TEOM FDMS),2,R,ugm-3 (TEOM FDMS),70,R,ugm-3,2,R,ugm-3 (TEOM FDMS)
05-01-2010,14:00,5,R,ugm-3 (TEOM FDMS),4,R,ugm-3 (TEOM FDMS),74,R,ugm-3,1,R,ugm-3 (TEOM FDMS)
05-01-2010,15:00,4,R,ugm-3 (TEOM FDMS),3,R,ugm-3 (TEOM FDMS),64,R,ugm-3,1,R,ugm-3 (TEOM FDMS)
05-01-2010,16:00,4,R,ugm-3 (TEOM FDMS),3,R,ugm-3 (TEOM FDMS),62,R,ugm-3,1,R,ugm-3 (TEOM FDMS)
05-01-2010,17:00,4,R,ugm-3 (TEOM FDMS),2,R,ugm-3 (TEOM FDMS),56,R,ugm-3,2,R,ugm-3 (TEOM FDMS)
05-01-2010,18:00,4,R,ugm-3 (TEOM FDMS),2,R,ugm-3 (TEOM FDMS),56,R,ugm-3,2,R,ugm-3 (TEOM FDMS)
05-01-2010,19:00,8,R,ugm-3 (TEOM FDMS),7,R,ugm-3 (TEOM FDMS),68,R,ugm-3,1,R,ugm-3 (TEOM FDMS)
05-01-2010,20:00,10,R,ugm-3 (TEOM FDMS),7,R,ugm-3 (TEOM FDMS),70,R,ugm-3,3,R,ugm-3 (TEOM FDMS)
05-01-2010,21:00,12,R,ugm-3 (TEOM FDMS),9,R,ugm-3 (TEOM FDMS),72,R,ugm-3,3,R,ugm-3 (TEOM FDMS)
05-01-2010,22:00,9,R,ugm-3 (TEOM FDMS),9,R,ugm-3 (TEOM FDMS),76,R,ugm-3,0,R,ugm-3 (TEOM FDMS)
05-01-2010,23:00,5,R,ugm-3 (TEOM FDMS),7,R,ugm-3 (TEOM FDMS),74,R,ugm-3,-2,R,ugm-3 (TEOM FDMS)
05-01-2010,24:00,11,R,ugm-3 (TEOM FDMS),9,R,ugm-3 (TEOM FDMS),74,R,ugm-3,2,R,ugm-3 (TEOM FDMS)
06-01-2010,01:00,12,R,ugm-3 (TEOM FDMS),9,R,ugm-3 (TEOM FDMS),78,R,ugm-3,3,R,ugm-3 (TEOM FDMS)
06-01-2010,02:00,14,R,ugm-3 (TEOM FDMS),11,R,ugm-3 (TEOM FDMS),78,R,ugm-3,3,R,ugm-3 (TEOM FDMS)
06-01-2010,03:00,11,R,ugm-3 (TEOM FDMS),10,R,ugm-3 (TEOM FDMS),70,R,ugm-3,1,R,ugm-3 (TEOM FDMS)
06-01-2010,04:00,12,R,ugm-3 (TEOM FDMS),11,R,ugm-3 (TEOM FDMS),76,R,ugm-3,1,R,ugm-3 (TEOM FDMS)
06-01-2010,05:00,11,R,ugm-3 (TEOM FDMS),10,R,ugm-3 (TEOM FDMS),74,R,ugm-3,1,R,ugm-3 (TEOM FDMS)
06-01-2010,06:00,12,R,ugm-3 (TEOM FDMS),10,R,ugm-3 (TEOM FDMS),76,R,ugm-3,2,R,ugm-3 (TEOM FDMS)
06-01-2010,07:00,10,R,ugm-3 (TEOM FDMS),9,R,ugm-3 (TEOM FDMS),70,R,ugm-3,1,R,ugm-3 (TEOM FDMS)
06-01-2010,08:00,10,R,ugm-3 (TEOM FDMS),8,R,ugm-3 (TEOM FDMS),68,R,ugm-3,2,R,ugm-3 (TEOM FDMS)
06-01-2010,09:00,9,R,ugm-3 (TEOM FDMS),8,R,ugm-3 (TEOM FDMS),64,R,ugm-3,1,R,ugm-3 (TEOM FDMS)
06-01-2010,10:00,7,R,ugm-3 (TEOM FDMS),7,R,ugm-3 (TEOM FDMS),60,R,ugm-3,0,R,ugm-3 (TEOM FDMS)
06-01-2010,11:00,9,R,ugm-3 (TEOM FDMS),9,R,ugm-3 (TEOM FDMS),68,R,ugm-3,0,R,ugm-3 (TEOM FDMS)
06-01-2010,12:00,4,R,ugm-3 (TEOM FDMS),5,R,ugm-3 (TEOM FDMS),74,R,ugm-3,-1,R,ugm-3 (TEOM FDMS)
06-01-2010,13:00,7,R,ugm-3 (TEOM FDMS),6,R,ugm-3 (TEOM FDMS),74,R,ugm-3,1,R,ugm-3 (TEOM FDMS)
06-01-2010,14:00,9,R,ugm-3 (TEOM FDMS),7,R,ugm-3 (TEOM FDMS),72,R,ugm-3,2,R,ugm-3 (TEOM FDMS)
06-01-2010,15:00,7,R,ugm-3 (TEOM FDMS),5,R,ugm-3 (TEOM FDMS),72,R,ugm-3,2,R,ugm-3 (TEOM FDMS)
06-01-2010,16:00,6,R,ugm-3 (TEOM FDMS),6,R,ugm-3 (TEOM FDMS),72,R,ugm-3,0,R,ugm-3 (TEOM FDMS)
06-01-2010,17:00,7,R,ugm-3 (TEOM FDMS),6,R,ugm-3 (TEOM FDMS),60,R,ugm-3,1,R,ugm-3 (TEOM FDMS)
06-01-2010,18:00,8,R,ugm-3 (TEOM FDMS),7,R,ugm-3 (TEOM FDMS),42,R,ugm-3,1,R,ugm-3 (TEOM FDMS)
06-01-2010,19:00,6,R,ugm-3 (TEOM FDMS),4,R,ugm-3 (TEOM FDMS),32,R,ugm-3,2,R,ugm-3 (TEOM FDMS)
06-01-2010,20:00,7,R,ugm-3 (TEOM FDMS),4,R,ugm-3 (TEOM FDMS),26,R,ugm-3,3,R,ugm-3 (TEOM FDMS)
06-01-2010,21:00,3,R,ugm-3 (TEOM FDMS),1,R,ugm-3 (TEOM FDMS),26,R,ugm-3,2,R,ugm-3 (TEOM FDMS)
06-01-2010,22:00,4,R,ugm-3 (TEOM FDMS),5,R,ugm-3 (TEOM FDMS),38,R,ugm-3,-1,R,ugm-3 (TEOM FDMS)
06-01-2010,23:00,5,R,ugm-3 (TEOM FDMS),4,R,ugm-3 (TEOM FDMS),44,R,ugm-3,1,R,ugm-3 (TEOM FDMS)
06-01-2010,24:00,4,R,ugm-3 (TEOM FDMS),2,R,ugm-3 (TEOM FDMS),42,R,ugm-3,2,R,ugm-3 (TEOM FDMS)
07-01-2010,01:00,5,R,ugm-3 (TEOM FDMS),4,R,ugm-3 (TEOM FDMS),42,R,ugm-3,1,R,ugm-3 (TEOM FDMS)
07-01-2010,02:00,7,R,ugm-3 (TEOM FDMS),5,R,ugm-3 (TEOM FDMS),46,R,ugm-3,2,R,ugm-3 (TEOM FDMS)
07-01-2010,03:00,7,R,ugm-3 (TEOM FDMS),5,R,ugm-3 (TEOM FDMS),42,R,ugm-3,2,R,ugm-3 (TEOM FDMS)
07-01-2010,04:00,5,R,ugm-3 (TEOM FDMS),5,R,ugm-3 (TEOM FDMS),42,R,ugm-3,0,R,ugm-3 (TEOM FDMS)
07-01-2010,05:00,2,R,ugm-3 (TEOM FDMS),3,R,ugm-3 (TEOM FDMS),56,R,ugm-3,-1,R,ugm-3 (TEOM FDMS)
07-01-2010,06:00,4,R,ugm-3 (TEOM FDMS),2,R,ugm-3 (TEOM FDMS),44,R,ugm-3,2,R,ugm-3 (TEOM FDMS)
07-01-2010,07:00,3,R,ugm-3 (TEOM FDMS),1,R,ugm-3 (TEOM FDMS),42,R,ugm-3,2,R,ugm-3 (TEOM FDMS)
07-01-2010,08:00,3,R,ugm-3 (TEOM FDMS),2,R,ugm-3 (TEOM FDMS),46,R,ugm-3,1,R,ugm-3 (TEOM FDMS)
07-01-2010,09:00,4,R,ugm-3 (TEOM FDMS),1,R,ugm-3 (TEOM FDMS),20,R,ugm-3,3,R,ugm-3 (TEOM FDMS)
07-01-2010,10:00,5,R,ugm-3 (TEOM FDMS),4,R,ugm-3 (TEOM FDMS),36,R,ugm-3,1,R,ugm-3 (TEOM FDMS)
07-01-2010,11:00,7,R,ugm-3 (TEOM FDMS),8,R,ugm-3 (TEOM FDMS),32,R,ugm-3,-1,R,ugm-3 (TEOM FDMS)
07-01-2010,12:00,5,R,ugm-3 (TEOM FDMS),5,R,ugm-3 (TEOM FDMS),26,R,ugm-3,0,R,ugm-3 (TEOM FDMS)
07-01-2010,13:00,6,R,ugm-3 (TEOM FDMS),9,R,ugm-3 (TEOM FDMS),30,R,ugm-3,-3,R,ugm-3 (TEOM FDMS)
07-01-2010,14:00,5,R,ugm-3 (TEOM FDMS),3,R,ugm-3 (TEOM FDMS),44,R,ugm-3,2,R,ugm-3 (TEOM FDMS)
07-01-2010,15:00,8,R,ugm-3 (TEOM FDMS),4,R,ugm-3 (TEOM FDMS),40,R,ugm-3,4,R,ugm-3 (TEOM FDMS)
07-01-2010,16:00,8,R,ugm-3 (TEOM FDMS),7,R,ugm-3 (TEOM FDMS),24,R,ugm-3,1,R,ugm-3 (TEOM FDMS)
07-01-2010,17:00,7,R,ugm-3 (TEOM FDMS),5,R,ugm-3 (TEOM FDMS),14,R,ugm-3,2,R,ugm-3 (TEOM FDMS)
07-01-2010,18:00,10,R,ugm-3 (TEOM FDMS),9,R,ugm-3 (TEOM FDMS),8,R,ugm-3,1,R,ugm-3 (TEOM FDMS)
07-01-2010,19:00,16,R,ugm-3 (TEOM FDMS),15,R,ugm-3 (TEOM FDMS),12,R,ugm-3,1,R,ugm-3 (TEOM FDMS)
07-01-2010,20:00,20,R,ugm-3 (TEOM FDMS),19,R,ugm-3 (TEOM FDMS),20,R,ugm-3,1,R,ugm-3 (TEOM FDMS)
07-01-2010,21:00,18,R,ugm-3 (TEOM FDMS),16,R,ugm-3 (TEOM FDMS),20,R,ugm-3,2,R,ugm-3 (TEOM FDMS)
07-01-2010,22:00,16,R,ugm-3 (TEOM FDMS),15,R,ugm-3 (TEOM FDMS),20,R,ugm-3,1,R,ugm-3 (TEOM FDMS)
07-01-2010,23:00,13,R,ugm-3 (TEOM FDMS),12,R,ugm-3 (TEOM FDMS),20,R,ugm-3,1,R,ugm-3 (TEOM FDMS)
07-01-2010,24:00,15,R,ugm-3 (TEOM FDMS),12,R,ugm-3 (TEOM FDMS),30,R,ugm-3,3,R,ugm-3 (TEOM FDMS)
08-01-2010,01:00,11,R,ugm-3 (TEOM FDMS),10,R,ugm-3 (TEOM FDMS),40,R,ugm-3,1,R,ugm-3 (TEOM FDMS)
08-01-2010,02:00,14,R,ugm-3 (TEOM FDMS),11,R,ugm-3 (TEOM FDMS),28,R,ugm-3,3,R,ugm-3 (TEOM FDMS)
08-01-2010,03:00,16,R,ugm-3 (TEOM FDMS),14,R,ugm-3 (TEOM FDMS),28,R,ugm-3,2,R,ugm-3 (TEOM FDMS)
08-01-2010,04:00,15,R,ugm-3 (TEOM FDMS),13,R,ugm-3 (TEOM FDMS),26,R,ugm-3,2,R,ugm-3 (TEOM FDMS)
08-01-2010,05:00,16,R,ugm-3 (TEOM FDMS),11,R,ugm-3 (TEOM FDMS),24,R,ugm-3,5,R,ugm-3 (TEOM FDMS)
08-01-2010,06:00,14,R,ugm-3 (TEOM FDMS),8,R,ugm-3 (TEOM FDMS),22,R,ugm-3,6,R,ugm-3 (TEOM FDMS)
08-01-2010,07:00,8,R,ugm-3 (TEOM FDMS),3,R,ugm-3 (TEOM FDMS),20,R,ugm-3,5,R,ugm-3 (TEOM FDMS)
08-01-2010,08:00,7,R,ugm-3 (TEOM FDMS),4,R,ugm-3 (TEOM FDMS),16,R,ugm-3,3,R,ugm-3 (TEOM FDMS)
08-01-2010,09:00,8,R,ugm-3 (TEOM FDMS),4,R,ugm-3 (TEOM FDMS),10,R,ugm-3,4,R,ugm-3 (TEOM FDMS)
08-01-2010,10:00,6,R,ugm-3 (TEOM FDMS),5,R,ugm-3 (TEOM FDMS),10,R,ugm-3,1,R,ugm-3 (TEOM FDMS)
08-01-2010,11:00,11,R,ugm-3 (TEOM FDMS),10,R,ugm-3 (TEOM FDMS),12,R,ugm-3,1,R,ugm-3 (TEOM FDMS)
08-01-2010,12:00,11,R,ugm-3 (TEOM FDMS),18,R,ugm-3 (TEOM FDMS),20,R,ugm-3,-7,R,ugm-3 (TEOM FDMS)
08-01-2010,13:00,8,R,ugm-3 (TEOM FDMS),11,R,ugm-3 (TEOM FDMS),34,R,ugm-3,-3,R,ugm-3 (TEOM FDMS)
08-01-2010,14:00,10,R,ugm-3 (TEOM FDMS),7,R,ugm-3 (TEOM FDMS),48,R,ugm-3,3,R,ugm-3 (TEOM FDMS)
08-01-2010,15:00,9,R,ugm-3 (TEOM FDMS),4,R,ugm-3 (TEOM FDMS),44,R,ugm-3,5,R,ugm-3 (TEOM FDMS)
08-01-2010,16:00,14,R,ugm-3 (TEOM FDMS),9,R,ugm-3 (TEOM FDMS),28,R,ugm-3,5,R,ugm-3 (TEOM FDMS)
08-01-2010,17:00,13,R,ugm-3 (TEOM FDMS),7,R,ugm-3 (TEOM FDMS),20,R,ugm-3,6,R,ugm-3 (TEOM FDMS)
08-01-2010,18:00,17,R,ugm-3 (TEOM FDMS),12,R,ugm-3 (TEOM FDMS),14,R,ugm-3,5,R,ugm-3 (TEOM FDMS)
08-01-2010,19:00,11,R,ugm-3 (TEOM FDMS),6,R,ugm-3 (TEOM FDMS),10,R,ugm-3,5,R,ugm-3 (TEOM FDMS)
08-01-2010,20:00,10,R,ugm-3 (TEOM FDMS),6,R,ugm-3 (TEOM FDMS),10,R,ugm-3,4,R,ugm-3 (TEOM FDMS)
08-01-2010,21:00,19,R,ugm-3 (TEOM FDMS),14,R,ugm-3 (TEOM FDMS),8,R,ugm-3,5,R,ugm-3 (TEOM FDMS)
08-01-2010,22:00,10,R,ugm-3 (TEOM FDMS),6,R,ugm-3 (TEOM FDMS),8,R,ugm-3,4,R,ugm-3 (TEOM FDMS)
08-01-2010,23:00,13,R,ugm-3 (TEOM FDMS),9,R,ugm-3 (TEOM FDMS),8,R,ugm-3,4,R,ugm-3 (TEOM FDMS)
08-01-2010,24:00,6,R,ugm-3 (TEOM FDMS),3,R,ugm-3 (TEOM FDMS),10,R,ugm-3,3,R,ugm-3 (TEOM FDMS)
09-01-2010,01:00,5,R,ugm-3 (TEOM FDMS),2,R,ugm-3 (TEOM FDMS),12,R,ugm-3,3,R,ugm-3 (TEOM FDMS)
09-01-2010,02:00,5,R,ugm-3 (TEOM FDMS),1,R,ugm-3 (TEOM FDMS),14,R,ugm-3,4,R,ugm-3 (TEOM FDMS)
09-01-2010,03:00,3,R,ugm-3 (TEOM FDMS),0,R,ugm-3 (TEOM FDMS),16,R,ugm-3,3,R,ugm-3 (TEOM FDMS)
09-01-2010,04:00,3,R,ugm-3 (TEOM FDMS),0,R,ugm-3 (TEOM FDMS),16,R,ugm-3,3,R,ugm-3 (TEOM FDMS)
09-01-2010,05:00,4,R,ugm-3 (TEOM FDMS),2,R,ugm-3 (TEOM FDMS),18,R,ugm-3,2,R,ugm-3 (TEOM FDMS)
09-01-2010,06:00,4,R,ugm-3 (TEOM FDMS),1,R,ugm-3 (TEOM FDMS),22,R,ugm-3,3,R,ugm-3 (TEOM FDMS)
09-01-2010,07:00,4,R,ugm-3 (TEOM FDMS),2,R,ugm-3 (TEOM FDMS),24,R,ugm-3,2,R,ugm-3 (TEOM FDMS)
09-01-2010,08:00,4,R,ugm-3 (TEOM FDMS),2,R,ugm-3 (TEOM FDMS),32,R,ugm-3,2,R,ugm-3 (TEOM FDMS)
09-01-2010,09:00,4,R,ugm-3 (TEOM FDMS),3,R,ugm-3 (TEOM FDMS),36,R,ugm-3,1,R,ugm-3 (TEOM FDMS)
09-01-2010,10:00,4,R,ugm-3 (TEOM FDMS),1,R,ugm-3 (TEOM FDMS),26,R,ugm-3,3,R,ugm-3 (TEOM FDMS)
09-01-2010,11:00,18,R,ugm-3 (TEOM FDMS),17,R,ugm-3 (TEOM FDMS),22,R,ugm-3,1,R,ugm-3 (TEOM FDMS)
09-01-2010,12:00,16,R,ugm-3 (TEOM FDMS),18,R,ugm-3 (TEOM FDMS),30,R,ugm-3,-2,R,ugm-3 (TEOM FDMS)
09-01-2010,13:00,15,R,ugm-3 (TEOM FDMS),15,R,ugm-3 (TEOM FDMS),40,R,ugm-3,0,R,ugm-3 (TEOM FDMS)
09-01-2010,14:00,8,R,ugm-3 (TEOM FDMS),7,R,ugm-3 (TEOM FDMS),56,R,ugm-3,1,R,ugm-3 (TEOM FDMS)
09-01-2010,15:00,10,R,ugm-3 (TEOM FDMS),8,R,ugm-3 (TEOM FDMS),60,R,ugm-3,2,R,ugm-3 (TEOM FDMS)
09-01-2010,16:00,15,R,ugm-3 (TEOM FDMS),13,R,ugm-3 (TEOM FDMS),52,R,ugm-3,2,R,ugm-3 (TEOM FDMS)
09-01-2010,17:00,17,R,ugm-3 (TEOM FDMS),14,R,ugm-3 (TEOM FDMS),42,R,ugm-3,3,R,ugm-3 (TEOM FDMS)
09-01-2010,18:00,20,R,ugm-3 (TEOM FDMS),17,R,ugm-3 (TEOM FDMS),16,R,ugm-3,3,R,ugm-3 (TEOM FDMS)
09-01-2010,19:00,18,R,ugm-3 (TEOM FDMS),14,R,ugm-3 (TEOM FDMS),8,R,ugm-3,4,R,ugm-3 (TEOM FDMS)
09-01-2010,20:00,22,R,ugm-3 (TEOM FDMS),17,R,ugm-3 (TEOM FDMS),10,R,ugm-3,5,R,ugm-3 (TEOM FDMS)
09-01-2010,21:00,28,R,ugm-3 (TEOM FDMS),21,R,ugm-3 (TEOM FDMS),10,R,ugm-3,7,R,ugm-3 (TEOM FDMS)
09-01-2010,22:00,32,R,ugm-3 (TEOM FDMS),26,R,ugm-3 (TEOM FDMS),10,R,ugm-3,6,R,ugm-3 (TEOM FDMS)
09-01-2010,23:00,18,R,ugm-3 (TEOM FDMS),12,R,ugm-3 (TEOM FDMS),10,R,ugm-3,6,R,ugm-3 (TEOM FDMS)
09-01-2010,24:00,17,R,ugm-3 (TEOM FDMS),13,R,ugm-3 (TEOM FDMS),10,R,ugm-3,4,R,ugm-3 (TEOM FDMS)
10-01-2010,01:00,15,R,ugm-3 (TEOM FDMS),9,R,ugm-3 (TEOM FDMS),8,R,ugm-3,6,R,ugm-3 (TEOM FDMS)
10-01-2010,02:00,11,R,ugm-3 (TEOM FDMS),9,R,ugm-3 (TEOM FDMS),56,R,ugm-3,2,R,ugm-3 (TEOM FDMS)
10-01-2010,03:00,10,R,ugm-3 (TEOM FDMS),9,R,ugm-3 (TEOM FDMS),58,R,ugm-3,1,R,ugm-3 (TEOM FDMS)
10-01-2010,04:00,10,R,ugm-3 (TEOM FDMS),10,R,ugm-3 (TEOM FDMS),56,R,ugm-3,0,R,ugm-3 (TEOM FDMS)
10-01-2010,05:00,11,R,ugm-3 (TEOM FDMS),8,R,ugm-3 (TEOM FDMS),56,R,ugm-3,3,R,ugm-3 (TEOM FDMS)
10-01-2010,06:00,12,R,ugm-3 (TEOM FDMS),9,R,ugm-3 (TEOM FDMS),52,R,ugm-3,3,R,ugm-3 (TEOM FDMS)
10-01-2010,07:00,11,R,ugm-3 (TEOM FDMS),7,R,ugm-3 (TEOM FDMS),54,R,ugm-3,4,R,ugm-3 (TEOM FDMS)
10-01-2010,08:00,8,R,ugm-3 (TEOM FDMS),5,R,ugm-3 (TEOM FDMS),64,R,ugm-3,3,R,ugm-3 (TEOM FDMS)
10-01-2010,09:00,9,R,ugm-3 (TEOM FDMS),6,R,ugm-3 (TEOM FDMS),66,R,ugm-3,3,R,ugm-3 (TEOM FDMS)
10-01-2010,10:00,7,R,ugm-3 (TEOM FDMS),6,R,ugm-3 (TEOM FDMS),66,R,ugm-3,1,R,ugm-3 (TEOM FDMS)
10-01-2010,11:00,9,R,ugm-3 (TEOM FDMS),8,R,ugm-3 (TEOM FDMS),68,R,ugm-3,1,R,ugm-3 (TEOM FDMS)
10-01-2010,12:00,9,R,ugm-3 (TEOM FDMS),6,R,ugm-3 (TEOM FDMS),68,R,ugm-3,3,R,ugm-3 (TEOM FDMS)
10-01-2010,13:00,8,R,ugm-3 (TEOM FDMS),7,R,ugm-3 (TEOM FDMS),68,R,ugm-3,1,R,ugm-3 (TEOM FDMS)
10-01-2010,14:00,9,R,ugm-3 (TEOM FDMS),8,R,ugm-3 (TEOM FDMS),70,R,ugm-3,1,R,ugm-3 (TEOM FDMS)
10-01-2010,15:00,11,R,ugm-3 (TEOM FDMS),8,R,ugm-3 (TEOM FDMS),68,R,ugm-3,3,R,ugm-3 (TEOM FDMS)
10-01-2010,16:00,11,R,ugm-3 (TEOM FDMS),10,R,ugm-3 (TEOM FDMS),68,R,ugm-3,1,R,ugm-3 (TEOM FDMS)
10-01-2010,17:00,14,R,ugm-3 (TEOM FDMS),12,R,ugm-3 (TEOM FDMS),70,R,ugm-3,2,R,ugm-3 (TEOM FDMS)
10-01-2010,18:00,15,R,ugm-3 (TEOM FDMS),12,R,ugm-3 (TEOM FDMS),70,R,ugm-3,3,R,ugm-3 (TEOM FDMS)
10-01-2010,19:00,17,R,ugm-3 (TEOM FDMS),14,R,ugm-3 (TEOM FDMS),72,R,ugm-3,3,R,ugm-3 (TEOM FDMS)
10-01-2010,20:00,18,R,ugm-3 (TEOM FDMS),14,R,ugm-3 (TEOM FDMS),72,R,ugm-3,4,R,ugm-3 (TEOM FDMS)
10-01-2010,21:00,18,R,ugm-3 (TEOM FDMS),16,R,ugm-3 (TEOM FDMS),72,R,ugm-3,2,R,ugm-3 (TEOM FDMS)
10-01-2010,22:00,14,R,ugm-3 (TEOM FDMS),13,R,ugm-3 (TEOM FDMS),72,R,ugm-3,1,R,ugm-3 (TEOM FDMS)
10-01-2010,23:00,14,R,ugm-3 (TEOM FDMS),13,R,ugm-3 (TEOM FDMS),74,R,ugm-3,1,R,ugm-3 (TEOM FDMS)
10-01-2010,24:00,14,R,ugm-3 (TEOM FDMS),13,R,ugm-3 (TEOM FDMS),72,R,ugm-3,1,R,ugm-3 (TEOM FDMS)
11-01-2010,01:00,11,R,ugm-3 (TEOM FDMS),10,R,ugm-3 (TEOM FDMS),74,R,ugm-3,1,R,ugm-3 (TEOM FDMS)
11-01-2010,02:00,11,R,ugm-3 (TEOM FDMS),8,R,ugm-3 (TEOM FDMS),74,R,ugm-3,3,R,ugm-3 (TEOM FDMS)
11-01-2010,03:00,8,R,ugm-3 (TEOM FDMS),5,R,ugm-3 (TEOM FDMS),74,R,ugm-3,3,R,ugm-3 (TEOM FDMS)
11-01-2010,04:00,6,R,ugm-3 (TEOM FDMS),4,R,ugm-3 (TEOM FDMS),74,R,ugm-3,2,R,ugm-3 (TEOM FDMS)
11-01-2010,05:00,6,R,ugm-3 (TEOM FDMS),3,R,ugm-3 (TEOM FDMS),74,R,ugm-3,3,R,ugm-3 (TEOM FDMS)
11-01-2010,06:00,5,R,ugm-3 (TEOM FDMS),3,R,ugm-3 (TEOM FDMS),74,R,ugm-3,2,R,ugm-3 (TEOM FDMS)
11-01-2010,07:00,4,R,ugm-3 (TEOM FDMS),2,R,ugm-3 (TEOM FDMS),72,R,ugm-3,2,R,ugm-3 (TEOM FDMS)
11-01-2010,08:00,4,R,ugm-3 (TEOM FDMS),1,R,ugm-3 (TEOM FDMS),70,R,ugm-3,3,R,ugm-3 (TEOM FDMS)
11-01-2010,09:00,2,R,ugm-3 (TEOM FDMS),1,R,ugm-3 (TEOM FDMS),68,R,ugm-3,1,R,ugm-3 (TEOM FDMS)